S57D-6 Weather Reports


Display with metric or nautical units.
time (UTC)temp
F
wind
direction
speed
MPH
gust
MPH
rain 1hr
in
rain 24hr
in
rain mn
in
humidity
%
barometer
mb
20260503021239 44 0 0.0 0.0 0.00 0.00 0.00 86 1018.7
20260503020740 44 292 0.0 0.0 0.00 0.00 0.00 85 1018.8
20260503020239 45 22 0.0 0.0 0.00 0.00 0.00 85 1018.7
20260503015739 45 22 0.0 0.0 0.00 0.00 0.00 85 1018.7
20260503015238 45 22 0.0 0.0 0.00 0.00 0.00 85 1018.8
20260503014739 45 22 0.0 0.0 0.00 0.00 0.00 85 1018.8
20260503014238 45 22 0.0 0.0 0.00 0.00 0.00 85 1018.8
20260503013738 45 22 0.0 0.0 0.00 0.00 0.00 85 1018.8
20260503013237 45 22 0.0 0.0 0.00 0.00 0.00 85 1018.8
20260503012741 45 22 0.0 0.0 0.00 0.00 0.00 85 1018.8
20260503012237 45 22 0.0 0.0 0.00 0.00 0.00 85 1018.8
20260503011737 45 22 0.0 0.0 0.00 0.00 0.00 84 1018.9
20260503011236 45 22 0.0 0.0 0.00 0.00 0.00 84 1018.9
20260503010737 45 22 0.0 0.0 0.00 0.00 0.00 84 1018.9
20260503010235 45 0 0.0 0.0 0.00 0.00 0.00 84 1019.0
20260503005736 45 0 0.0 0.0 0.00 0.00 0.00 84 1018.9
20260503005235 46 22 0.0 0.0 0.00 0.00 0.00 83 1019.0
20260503004736 46 22 0.0 0.0 0.00 0.00 0.00 83 1019.0
20260503004234 46 22 0.0 0.0 0.00 0.00 0.00 83 1019.0
20260503003735 46 22 0.0 0.0 0.00 0.00 0.00 83 1019.1
20260503003234 46 22 0.0 0.0 0.00 0.00 0.00 83 1019.2
20260503002734 46 22 0.0 0.0 0.00 0.00 0.00 83 1019.2
20260503002233 46 22 0.0 0.0 0.00 0.00 0.00 83 1019.3
20260503001734 46 22 0.0 0.0 0.00 0.00 0.00 83 1019.3
20260503001233 47 22 0.0 0.0 0.00 0.00 0.00 83 1019.3
20260503000733 47 337 0.0 0.0 0.00 0.00 0.00 82 1019.3
20260503000233 47 0 0.0 0.0 0.00 0.00 0.00 82 1019.3
20260502235734 47 0 0.0 0.0 0.00 0.00 0.00 82 1019.3
20260502235231 47 337 0.0 0.0 0.00 0.00 0.00 82 1019.2
20260502234732 47 337 0.0 0.0 0.00 0.00 0.00 82 1019.4
20260502234231 48 337 0.0 0.0 0.00 0.00 0.00 81 1019.4
20260502233732 48 0 0.0 0.0 0.00 0.00 0.00 81 1019.4
20260502233230 48 0 0.0 0.0 0.00 0.00 0.00 81 1019.4
20260502232731 48 0 0.0 0.0 0.00 0.00 0.00 81 1019.4
20260502232230 48 337 0.0 0.0 0.00 0.00 0.00 80 1019.5
20260502231730 48 22 0.0 0.0 0.00 0.00 0.00 80 1019.5
20260502231229 48 22 0.0 0.0 0.00 0.00 0.00 80 1019.4
20260502230732 48 22 0.0 0.0 0.00 0.00 0.00 79 1019.4
20260502230730 48 22 0.0 0.0 0.00 0.00 0.00 79 1019.4
20260502230229 48 22 0.0 0.0 0.00 0.00 0.00 79 1019.4
20260502225228 49 22 0.0 0.0 0.00 0.00 0.00 79 1019.6
20260502224730 49 22 0.0 0.0 0.00 0.00 0.00 79 1019.6
20260502224227 49 22 0.0 0.0 0.00 0.00 0.00 78 1019.7
20260502223728 49 22 0.0 0.0 0.00 0.00 0.00 78 1019.6
20260502223227 49 315 0.0 0.0 0.00 0.00 0.00 78 1019.6
20260502222226 50 0 0.0 0.0 0.00 0.00 0.00 77 1019.6
20260502221727 50 315 0.0 0.0 0.00 0.00 0.00 77 1019.6
20260502221226 50 337 0.0 0.0 0.00 0.00 0.00 76 1019.6
20260502220726 50 22 0.0 0.0 0.00 0.00 0.00 76 1019.6
20260502220225 51 315 0.0 0.0 0.00 0.00 0.00 75 1019.6
20260502215726 51 315 0.0 0.0 0.00 0.00 0.00 75 1019.5
20260502215225 51 337 0.0 0.0 0.00 0.00 0.00 75 1019.6
20260502214224 52 0 0.0 0.0 0.00 0.00 0.00 75 1019.4
20260502213725 52 0 0.0 0.0 0.00 0.00 0.00 74 1019.5
20260502213223 52 0 0.0 0.0 0.00 0.00 0.00 74 1019.5
20260502212724 52 0 0.0 0.0 0.00 0.00 0.00 73 1019.6
20260502212223 52 0 0.0 0.0 0.00 0.00 0.00 73 1019.5
20260502211724 53 22 0.0 0.0 0.00 0.00 0.00 73 1019.4
20260502211222 53 22 0.0 0.0 0.00 0.00 0.00 73 1019.5
20260502210723 53 0 0.0 0.0 0.00 0.00 0.00 72 1019.3
20260502210222 53 0 0.0 0.0 0.00 0.00 0.00 72 1019.3
20260502205724 53 0 0.0 1.0 0.00 0.00 0.00 71 1019.3
20260502205221 54 67 0.0 0.0 0.00 0.00 0.00 71 1019.3
20260502204723 54 22 0.0 0.0 0.00 0.00 0.00 70 1019.3
20260502204223 54 22 0.0 0.0 0.00 0.00 0.00 69 1019.5
20260502203220 55 315 0.0 0.0 0.00 0.00 0.00 68 1019.4
20260502202721 56 157 0.0 0.0 0.00 0.00 0.00 67 1019.4
20260502202219 56 112 0.0 0.0 0.00 0.00 0.00 66 1019.4
20260502201720 56 45 0.0 0.0 0.00 0.00 0.00 66 1019.4
20260502201219 57 45 0.0 0.0 0.00 0.00 0.00 65 1019.3
20260502200720 57 22 0.0 0.0 0.00 0.00 0.00 64 1019.4
20260502200218 58 45 0.0 0.0 0.00 0.00 0.00 63 1019.3
20260502195719 58 67 0.0 0.0 0.00 0.00 0.00 62 1019.3
20260502195218 59 337 0.0 0.0 0.00 0.00 0.00 61 1019.2
20260502194718 60 0 0.0 0.0 0.00 0.00 0.00 60 1019.2
20260502194217 59 225 0.0 0.0 0.00 0.00 0.00 60 1019.1
20260502193217 59 202 0.0 0.0 0.00 0.00 0.00 60 1019.0
20260502192717 59 315 0.0 0.0 0.00 0.00 0.00 61 1019.0
20260502192216 60 292 0.0 0.0 0.00 0.00 0.00 60 1019.1
20260502191216 61 337 0.0 0.0 0.00 0.00 0.00 58 1018.9
20260502190716 61 337 0.0 0.0 0.00 0.00 0.00 57 1019.0
20260502185913 61 135 0.0 0.0 0.00 0.00 0.00 56 1018.9
20260502184913 62 45 0.0 0.0 0.00 0.00 0.00 55 1018.9
20260502184413 63 45 0.0 0.0 0.00 0.00 0.00 54 1018.7
20260502183912 64 45 0.0 0.0 0.00 0.00 0.00 53 1018.7
20260502183413 64 315 0.0 0.0 0.00 0.00 0.00 51 1018.6
20260502182912 66 337 0.0 0.0 0.00 0.00 0.00 50 1018.6
20260502182414 67 202 0.0 0.0 0.00 0.00 0.00 46 1018.5
20260502181911 67 135 0.0 0.0 0.00 0.00 0.00 46 1018.3
20260502181412 68 135 0.0 0.0 0.00 0.00 0.00 45 1018.3
20260502180911 68 135 0.0 0.0 0.00 0.00 0.00 44 1018.4
20260502180412 68 247 0.0 0.0 0.00 0.00 0.00 44 1018.4
20260502170205 73 202 0.0 1.0 0.00 0.00 0.00 38 1018.2
20260502164204 74 135 1.0 2.0 0.00 0.00 0.00 37 1018.2
20260502163706 75 135 0.0 0.0 0.00 0.00 0.00 36 1018.2
20260502163204 75 157 0.0 0.0 0.00 0.00 0.00 36 1018.3
20260502162203 75 247 0.0 0.0 0.00 0.00 0.00 36 1018.4
20260502161704 75 247 0.0 0.0 0.00 0.00 0.00 36 1018.4
20260502161202 75 247 0.0 1.0 0.00 0.00 0.00 36 1018.6
20260502160703 75 247 1.0 1.0 0.00 0.00 0.00 36 1018.6
20260502160202 76 247 0.0 1.0 0.00 0.00 0.00 36 1018.4
20260502152200 75 247 0.0 0.0 0.00 0.00 0.00 37 1018.8
20260502151700 74 247 0.0 4.0 0.00 0.00 0.00 37 1018.8
20260502151159 74 247 4.0 6.0 0.00 0.00 0.00 37 1018.9
20260502150700 74 247 6.0 6.0 0.00 0.00 0.00 37 1019.0
20260502150158 74 292 0.0 2.0 0.00 0.00 0.00 37 1019.0
20260502130450 75 157 2.0 2.0 0.00 0.00 0.00 37 1020.4
20260502123449 75 247 2.0 2.0 0.00 0.00 0.00 38 1020.7
20260502122448 75 225 3.0 3.0 0.00 0.00 0.00 39 1020.9
20260502121950 75 157 1.0 1.0 0.00 0.00 0.00 39 1021.1
20260502121448 75 225 1.0 1.0 0.00 0.00 0.00 39 1021.1
20260502120948 75 292 0.0 0.0 0.00 0.00 0.00 39 1021.1
20260502120447 74 45 0.0 2.0 0.00 0.00 0.00 40 1021.2
20260502114945 74 270 0.0 0.0 0.00 0.00 0.00 39 1021.3
20260502114450 74 202 0.0 3.0 0.00 0.00 0.00 38 1021.4
20260502113944 74 135 3.0 4.0 0.00 0.00 0.00 40 1021.6
20260502112742 73 45 1.0 1.0 0.00 0.00 0.00 40 1021.7
20260502111743 73 90 1.0 1.0 0.00 0.00 0.00 40 1021.8
20260502110741 72 135 0.0 2.0 0.00 0.00 0.00 40 1021.9
20260502105740 72 135 0.0 1.0 0.00 0.00 0.00 40 1022.1
20260502105241 72 0 0.0 1.0 0.00 0.00 0.00 41 1022.2
20260502104740 72 225 1.0 2.0 0.00 0.00 0.00 42 1022.2
20260502103739 71 157 2.0 2.0 0.00 0.00 0.00 43 1022.3
20260502102739 71 157 1.0 5.0 0.00 0.00 0.00 44 1022.5
20260502101738 70 180 0.0 0.0 0.00 0.00 0.00 46 1022.6
20260502101239 70 315 0.0 2.0 0.00 0.00 0.00 48 1022.8
20260502100738 69 292 0.0 0.0 0.00 0.00 0.00 48 1022.7
20260502091333 66 202 0.0 1.0 0.00 0.00 0.00 54 1023.6
20260502090332 66 112 0.0 3.0 0.00 0.00 0.00 57 1023.6
20260502071526 55 157 0.0 1.0 0.00 0.00 0.00 71 1024.8
20260502071025 55 247 0.0 1.0 0.00 0.00 0.00 72 1024.7
20260502070525 55 180 1.0 1.0 0.00 0.00 0.00 73 1024.6
20260502070024 54 112 0.0 0.0 0.00 0.00 0.00 74 1024.7
20260502065525 53 180 0.0 0.0 0.00 0.00 0.00 75 1024.7
20260502065024 53 157 0.0 0.0 0.00 0.00 0.00 75 1024.8
20260502064526 51 135 0.0 1.0 0.00 0.00 0.00 76 1024.8
20260502064023 51 135 1.0 1.0 0.00 0.00 0.00 77 1024.9
20260502063524 51 180 1.0 1.0 0.00 0.00 0.00 77 1025.0
20260502062420 49 157 0.0 0.0 0.00 0.00 0.00 80 1025.1
20260502061419 48 202 0.0 1.0 0.00 0.00 0.00 81 1025.1
20260502060920 48 157 1.0 1.0 0.00 0.00 0.00 81 1025.2
20260502060419 48 135 0.0 0.0 0.00 0.00 0.00 82 1025.2
20260502055921 47 135 0.0 0.0 0.00 0.00 0.00 84 1025.2
20260502055418 46 135 0.0 0.0 0.00 0.00 0.00 85 1025.3
20260502054919 46 135 0.0 0.0 0.00 0.00 0.00 86 1025.2
20260502054418 45 157 0.0 0.0 0.00 0.00 0.00 87 1025.3
20260502053919 44 157 0.0 0.0 0.00 0.00 0.00 87 1025.2
20260502053417 43 135 0.0 0.0 0.00 0.00 0.00 88 1025.2
20260502052416 41 135 0.0 0.0 0.00 0.00 0.00 88 1025.3
20260502051917 40 157 0.0 0.0 0.00 0.00 0.00 88 1025.3
20260502051416 40 135 0.0 0.0 0.00 0.00 0.00 88 1025.3
20260502050415 39 22 0.0 0.0 0.00 0.00 0.00 88 1025.3
20260502045917 39 22 0.0 0.0 0.00 0.00 0.00 88 1025.3
20260502045415 38 22 0.0 0.0 0.00 0.00 0.00 88 1025.2
20260502044915 38 22 0.0 0.0 0.00 0.00 0.00 88 1025.3
20260502044414 38 22 0.0 0.0 0.00 0.00 0.00 88 1025.3
20260502043917 38 22 0.0 0.0 0.00 0.00 0.00 88 1025.4
20260502043414 38 22 0.0 0.0 0.00 0.00 0.00 88 1025.3
20260502042915 38 22 0.0 0.0 0.00 0.00 0.00 88 1025.3
20260502042413 38 0 0.0 1.0 0.00 0.00 0.00 88 1025.2
20260502041914 38 22 1.0 1.0 0.00 0.00 0.00 87 1025.1
20260502041412 38 22 0.0 0.0 0.00 0.00 0.00 87 1025.1
20260502040914 38 0 0.0 0.0 0.00 0.00 0.00 87 1025.2
20260502040412 38 22 0.0 0.0 0.00 0.00 0.00 87 1025.2
20260502035913 38 22 0.0 0.0 0.00 0.00 0.00 87 1025.1
20260502035411 38 22 0.0 0.0 0.00 0.00 0.00 87 1025.1
20260502034912 38 22 0.0 0.0 0.00 0.00 0.00 87 1025.1
20260502034411 38 22 0.0 0.0 0.00 0.00 0.00 87 1025.1
20260502033913 38 22 0.0 0.0 0.00 0.00 0.00 87 1025.0
20260502033410 38 292 0.0 0.0 0.00 0.00 0.00 87 1025.0
20260502032912 38 292 0.0 0.0 0.00 0.00 0.00 87 1025.0
20260502032410 38 22 0.0 0.0 0.00 0.00 0.00 87 1025.1
20260502031910 38 22 0.0 0.0 0.00 0.00 0.00 86 1024.9
20260502031409 38 22 0.0 0.0 0.00 0.00 0.00 86 1025.1
20260502030913 38 22 0.0 0.0 0.00 0.00 0.00 86 1025.0
20260502030408 38 22 0.0 0.0 0.00 0.00 0.00 86 1025.1
20260502025910 38 315 0.0 0.0 0.00 0.00 0.00 86 1025.1
20260502025408 38 22 0.0 0.0 0.00 0.00 0.00 86 1025.1
20260502024909 39 337 0.0 0.0 0.00 0.00 0.00 85 1025.1
20260502024407 39 292 0.0 0.0 0.00 0.00 0.00 85 1025.2
20260502023407 39 22 0.0 0.0 0.00 0.00 0.00 85 1025.1
20260502022907 39 22 0.0 0.0 0.00 0.00 0.00 85 1025.0
20260502022406 39 0 0.0 0.0 0.00 0.00 0.00 85 1025.0
20260502021406 40 0 0.0 1.0 0.00 0.00 0.00 85 1025.1